Bar Harbor, ME

1:21 PM EDT on March 28, 2017 (GMT -0400)
Hancock County-Bar Harbor

Weather History for KBHB - April, 2013

Change the Weather History Date:

Thursday, April 11, 2013

  Actual Average Record
Temperature  
Mean Temperature 42 °F -  
Max Temperature 48 °F 49 °F 62 °F (1955)
Min Temperature 35 °F 31 °F 21 °F (1967)
Degree Days  
Heating Degree Days 24    
Moisture  
Dew Point 22 °F    
Average Humidity 50    
Maximum Humidity 100    
Minimum Humidity 24    
Precipitation  
Precipitation 0.00 in - - ()
Sea Level Pressure  
Sea Level Pressure 30.00 in    
Wind  
Wind Speed 6 mph (North)    
Max Wind Speed 17 mph    
Max Gust Speed 24 mph    
Visibility 10 miles    
Events      
Averages and records for this station are not official NWS values.
T = Trace of Precipitation, MM = Missing Value Source: NWS Daily Summary

Daily Weather History Graph

Daily Weather History Graph

Search for Another Location

Airport or City:

Trip Planner

Search our weather history database for the weather conditions in past years. The results will help you decide how hot, cold, wet, or windy it might be!

Date:

Astronomy

Apr. 11, 2013 Rise Set
Actual Time 5:56 AM EDT 7:13 PM EDT
Civil Twilight 5:26 AM EDT 7:43 PM EDT
Nautical Twilight 4:50 AM EDT 8:19 PM EDT
Astronomical Twilight 4:11 AM EDT 8:58 PM EDT
Moon 6:22 AM EDT (4/11) 8:48 PM EDT (4/11)
Length of Visible Light 14h 17m
Length of Day
13h 17m
New Moon, 2% of the Moon is Illuminated
Apr 11
New Moon
Apr 18
First Quarter
Apr 25
Full
May 2
Last Quarter
May 9
New

Hourly Weather History & Observations

Time (EDT) Temp. Windchill Dew Point Humidity Pressure Visibility Wind Dir Wind Speed Gust Speed Precip Events Conditions
12:15 AM 42.8 °F 41.1 °F 41.0 °F 93% 29.91 in 10.0 mi SW 3.5 mph - N/A   Overcast
12:35 AM 42.8 °F 41.1 °F 42.8 °F 100% 29.90 in 10.0 mi South 3.5 mph - N/A   Overcast
12:55 AM 42.8 °F - 42.8 °F 100% 29.89 in 10.0 mi Calm Calm - N/A   Overcast
1:15 AM 42.8 °F - 42.8 °F 100% 29.90 in 10.0 mi Calm Calm - N/A   Overcast
1:35 AM 42.8 °F - 41.0 °F 93% 29.89 in 10.0 mi Calm Calm - N/A   Overcast
1:55 AM 42.8 °F - 42.8 °F 100% 29.89 in 10.0 mi Calm Calm - N/A   Overcast
2:15 AM 42.8 °F - 42.8 °F 100% 29.88 in 10.0 mi Calm Calm - N/A   Overcast
2:35 AM 42.8 °F - 42.8 °F 100% 29.87 in 10.0 mi Calm Calm - N/A   Overcast
2:55 AM 42.8 °F - 39.2 °F 87% 29.86 in 10.0 mi Calm Calm - N/A   Overcast
3:15 AM 42.8 °F - 39.2 °F 87% 29.87 in 10.0 mi Calm Calm - N/A   Overcast
3:35 AM 42.8 °F - 41.0 °F 93% 29.89 in 10.0 mi Calm Calm - N/A   Overcast
3:55 AM 42.8 °F 41.1 °F 39.2 °F 87% 29.89 in 10.0 mi NW 3.5 mph - N/A   Overcast
4:15 AM 42.8 °F - 37.4 °F 81% 29.88 in 10.0 mi Calm Calm - N/A   Overcast
4:35 AM 42.8 °F - 37.4 °F 81% 29.87 in 10.0 mi Calm Calm - N/A   Overcast
4:55 AM 41.0 °F - 37.4 °F 87% 29.86 in 10.0 mi Calm Calm - N/A   Overcast
5:15 AM 41.0 °F 36.4 °F 33.8 °F 76% 29.88 in 10.0 mi North 6.9 mph - N/A   Overcast
5:35 AM 41.0 °F 34.7 °F 30.2 °F 65% 29.89 in 10.0 mi North 10.4 mph 18.4 mph N/A   Overcast
5:55 AM 39.2 °F 31.6 °F 30.2 °F 70% 29.91 in 10.0 mi North 12.7 mph 17.3 mph N/A   Overcast
6:15 AM 39.2 °F 33.0 °F 28.4 °F 65% 29.92 in 10.0 mi North 9.2 mph - N/A   Overcast
6:35 AM 37.4 °F 30.8 °F 28.4 °F 70% 29.93 in 10.0 mi North 9.2 mph - N/A   Mostly Cloudy
6:55 AM 37.4 °F 29.8 °F 26.6 °F 65% 29.94 in 10.0 mi North 11.5 mph - N/A   Partly Cloudy
7:15 AM 35.6 °F 28.6 °F 24.8 °F 65% 29.95 in 10.0 mi North 9.2 mph 21.9 mph N/A   Clear
7:35 AM 35.6 °F 26.2 °F 21.2 °F 56% 29.96 in 10.0 mi North 15.0 mph 23.0 mph N/A   Clear
7:55 AM 37.4 °F 28.5 °F 19.4 °F 48% 29.96 in 10.0 mi North 15.0 mph 20.7 mph N/A   Clear
8:15 AM 37.4 °F 30.3 °F 19.4 °F 48% 29.96 in 10.0 mi North 10.4 mph 18.4 mph N/A   Clear
8:35 AM 37.4 °F 29.8 °F 19.4 °F 48% 29.96 in 10.0 mi North 11.5 mph 16.1 mph N/A   Clear
8:55 AM 39.2 °F 33.0 °F 21.2 °F 49% 29.96 in 10.0 mi North 9.2 mph - N/A   Clear
9:15 AM 39.2 °F 31.6 °F 19.4 °F 45% 29.97 in 10.0 mi North 12.7 mph 16.1 mph N/A   Clear
9:35 AM 39.2 °F 32.5 °F 19.4 °F 45% 29.97 in 10.0 mi NNE 10.4 mph - N/A   Clear
9:55 AM 41.0 °F 33.9 °F 21.2 °F 45% 29.97 in 10.0 mi North 12.7 mph - N/A   Clear
10:15 AM 42.8 °F 35.8 °F 21.2 °F 42% 29.97 in 10.0 mi NNE 13.8 mph 17.3 mph N/A   Clear
10:35 AM 42.8 °F 35.8 °F 19.4 °F 39% 29.97 in 10.0 mi North 13.8 mph - N/A   Clear
10:55 AM 42.8 °F 37.0 °F 19.4 °F 39% 29.98 in 10.0 mi North 10.4 mph 19.6 mph N/A   Clear
11:15 AM 42.8 °F 37.0 °F 19.4 °F 39% 29.99 in 10.0 mi North 10.4 mph 24.2 mph N/A   Clear
11:35 AM 42.8 °F 34.8 °F 19.4 °F 39% 29.99 in 10.0 mi North 17.3 mph 21.9 mph N/A   Clear
11:55 AM 44.6 °F 38.1 °F 19.4 °F 37% 29.99 in 10.0 mi North 13.8 mph 20.7 mph N/A   Clear
12:15 PM 44.6 °F 37.8 °F 15.8 °F 31% 29.98 in 10.0 mi North 15.0 mph 23.0 mph N/A   Clear
12:35 PM 44.6 °F 38.8 °F 14.0 °F 29% 29.99 in 10.0 mi North 11.5 mph 18.4 mph N/A   Clear
1:15 PM 46.4 °F 42.4 °F 15.8 °F 29% 30.00 in 10.0 mi North 8.1 mph 20.7 mph N/A   Clear
1:35 PM 46.4 °F 41.1 °F 14.0 °F 27% 30.00 in 10.0 mi North 11.5 mph 20.7 mph N/A   Clear
1:55 PM 46.4 °F 40.7 °F 15.8 °F 29% 30.01 in 10.0 mi North 12.7 mph 18.4 mph N/A   Clear
2:15 PM 46.4 °F 41.9 °F 15.8 °F 29% 30.01 in 10.0 mi North 9.2 mph 16.1 mph N/A   Clear
2:35 PM 46.4 °F 42.9 °F 15.8 °F 29% 30.00 in 10.0 mi NW 6.9 mph - N/A   Clear
2:55 PM 48.2 °F - 17.6 °F 30% 30.00 in 10.0 mi North 10.4 mph 20.7 mph N/A   Clear
3:15 PM 48.2 °F - 15.8 °F 27% 30.00 in 10.0 mi NW 5.8 mph - N/A   Clear
3:35 PM 48.2 °F - 15.8 °F 27% 30.00 in 10.0 mi NNW 6.9 mph 19.6 mph N/A   Clear
3:55 PM 48.2 °F - 12.2 °F 24% 30.00 in 10.0 mi NW 6.9 mph 16.1 mph N/A   Clear
4:15 PM 48.2 °F - 12.2 °F 24% 30.00 in 10.0 mi NW 5.8 mph 23.0 mph N/A   Clear
4:35 PM 46.4 °F 41.1 °F 12.2 °F 25% 30.00 in 10.0 mi NNW 11.5 mph 20.7 mph N/A   Clear
4:55 PM 46.4 °F 41.5 °F 12.2 °F 25% 30.00 in 10.0 mi North 10.4 mph 17.3 mph N/A   Clear
5:15 PM 46.4 °F 44.3 °F 12.2 °F 25% 30.02 in 10.0 mi NW 4.6 mph - N/A   Clear
5:35 PM 44.6 °F 40.2 °F 12.2 °F 27% 30.03 in 10.0 mi NW 8.1 mph 19.6 mph N/A   Clear
5:55 PM 44.6 °F 40.2 °F 12.2 °F 27% 30.06 in 10.0 mi NW 8.1 mph - N/A   Clear
6:15 PM 44.6 °F 41.4 °F 12.2 °F 27% 30.06 in 10.0 mi NNW 5.8 mph - N/A   Clear
6:35 PM 44.6 °F 40.7 °F 12.2 °F 27% 30.06 in 10.0 mi NNW 6.9 mph - N/A   Partly Cloudy
6:55 PM 42.8 °F 38.0 °F 15.8 °F 34% 30.07 in 10.0 mi North 8.1 mph - N/A   Partly Cloudy
7:15 PM 42.8 °F 37.0 °F 15.8 °F 34% 30.08 in 10.0 mi North 10.4 mph - N/A   Clear
7:35 PM 42.8 °F 38.0 °F 12.2 °F 29% 30.09 in 10.0 mi North 8.1 mph - N/A   Clear
7:55 PM 41.0 °F 35.8 °F 10.4 °F 29% 30.09 in 10.0 mi North 8.1 mph - N/A   Clear
8:15 PM 39.2 °F 35.9 °F 12.2 °F 33% 30.12 in 10.0 mi NNW 4.6 mph - N/A   Clear
8:35 PM 39.2 °F 35.9 °F 12.2 °F 33% 30.13 in 10.0 mi North 4.6 mph - N/A   Clear
8:55 PM 37.4 °F 32.8 °F 12.2 °F 36% 30.13 in 10.0 mi North 5.8 mph - N/A   Clear
9:15 PM 37.4 °F 32.1 °F 12.2 °F 36% 30.14 in 10.0 mi North 6.9 mph - N/A   Clear
9:35 PM 37.4 °F 32.8 °F 12.2 °F 36% 30.15 in 10.0 mi North 5.8 mph - N/A   Clear
9:55 PM 37.4 °F 31.4 °F 12.2 °F 36% 30.15 in 10.0 mi North 8.1 mph - N/A   Clear
10:15 PM 37.4 °F 32.1 °F 12.2 °F 36% 30.16 in 10.0 mi North 6.9 mph - N/A   Clear
10:35 PM 37.4 °F 31.4 °F 12.2 °F 36% 30.17 in 10.0 mi North 8.1 mph - N/A   Clear
10:55 PM 37.4 °F 31.4 °F 12.2 °F 36% 30.17 in 10.0 mi North 8.1 mph - N/A   Clear
11:15 PM 35.6 °F 28.0 °F 14.0 °F 41% 30.17 in 10.0 mi North 10.4 mph - N/A   Clear
11:35 PM 35.6 °F 28.0 °F 12.2 °F 38% 30.17 in 10.0 mi North 10.4 mph - N/A   Clear
11:55 PM 35.6 °F 29.2 °F 12.2 °F 38% 30.18 in 10.0 mi North 8.1 mph - N/A   Clear